owner,sensor,date,latitude,longitude,relative_humidity,qcFlag 
LUMCON,ioos:station:LUMCON:102:1,2017-03-01T00:00:00Z,29.1870,-90.6093,92.7,1111122 
LUMCON,ioos:station:LUMCON:102:1,2017-03-01T00:15:00Z,29.1870,-90.6093,92.7,1111122 
LUMCON,ioos:station:LUMCON:102:1,2017-03-01T00:30:00Z,29.1870,-90.6093,92.8,1111122 
LUMCON,ioos:station:LUMCON:102:1,2017-03-01T00:45:00Z,29.1870,-90.6093,92.8,1111122 
LUMCON,ioos:station:LUMCON:102:1,2017-03-01T01:00:00Z,29.1870,-90.6093,92.9,1111122 
LUMCON,ioos:station:LUMCON:102:1,2017-03-01T01:15:00Z,29.1870,-90.6093,93.0,1111122 
LUMCON,ioos:station:LUMCON:102:1,2017-03-01T01:30:00Z,29.1870,-90.6093,92.4,1111122 
LUMCON,ioos:station:LUMCON:102:1,2017-03-01T01:45:00Z,29.1870,-90.6093,92.2,1111122 
LUMCON,ioos:station:LUMCON:102:1,2017-03-01T02:00:00Z,29.1870,-90.6093,92.2,1111122 
LUMCON,ioos:station:LUMCON:102:1,2017-03-01T02:15:00Z,29.1870,-90.6093,91.9,1111122 
LUMCON,ioos:station:LUMCON:102:1,2017-03-01T02:30:00Z,29.1870,-90.6093,91.9,1111122 
LUMCON,ioos:station:LUMCON:102:1,2017-03-01T02:45:00Z,29.1870,-90.6093,92.1,1111122 
LUMCON,ioos:station:LUMCON:102:1,2017-03-01T03:00:00Z,29.1870,-90.6093,92.4,1111122 
LUMCON,ioos:station:LUMCON:102:1,2017-03-01T03:15:00Z,29.1870,-90.6093,92.2,1111122 
LUMCON,ioos:station:LUMCON:102:1,2017-03-01T03:30:00Z,29.1870,-90.6093,92.3,1111122 
LUMCON,ioos:station:LUMCON:102:1,2017-03-01T03:45:00Z,29.1870,-90.6093,92.5,1111122 
LUMCON,ioos:station:LUMCON:102:1,2017-03-01T04:00:00Z,29.1870,-90.6093,92.2,1111122 
LUMCON,ioos:station:LUMCON:102:1,2017-03-01T04:15:00Z,29.1870,-90.6093,92.4,1111122 
LUMCON,ioos:station:LUMCON:102:1,2017-03-01T04:30:00Z,29.1870,-90.6093,92.4,1111122 
LUMCON,ioos:station:LUMCON:102:1,2017-03-01T04:45:00Z,29.1870,-90.6093,92.5,1111122 
LUMCON,ioos:station:LUMCON:102:1,2017-03-01T05:00:00Z,29.1870,-90.6093,92.7,1111122 
LUMCON,ioos:station:LUMCON:102:1,2017-03-01T05:15:00Z,29.1870,-90.6093,92.8,1111122 
LUMCON,ioos:station:LUMCON:102:1,2017-03-01T05:30:00Z,29.1870,-90.6093,92.9,1111122 
LUMCON,ioos:station:LUMCON:102:1,2017-03-01T05:45:00Z,29.1870,-90.6093,92.9,1111122 
LUMCON,ioos:station:LUMCON:102:1,2017-03-01T06:00:00Z,29.1870,-90.6093,93.1,1111122 
LUMCON,ioos:station:LUMCON:102:1,2017-03-01T06:15:00Z,29.1870,-90.6093,93.2,1111122 
LUMCON,ioos:station:LUMCON:102:1,2017-03-01T06:30:00Z,29.1870,-90.6093,93.4,1111122 
LUMCON,ioos:station:LUMCON:102:1,2017-03-01T06:45:00Z,29.1870,-90.6093,93.3,1111122 
LUMCON,ioos:station:LUMCON:102:1,2017-03-01T07:00:00Z,29.1870,-90.6093,93.2,1111122 
LUMCON,ioos:station:LUMCON:102:1,2017-03-01T07:15:00Z,29.1870,-90.6093,93.2,1111122 
LUMCON,ioos:station:LUMCON:102:1,2017-03-01T07:30:00Z,29.1870,-90.6093,93.0,1111122 
LUMCON,ioos:station:LUMCON:102:1,2017-03-01T07:45:00Z,29.1870,-90.6093,92.8,1111122 
LUMCON,ioos:station:LUMCON:102:1,2017-03-01T08:00:00Z,29.1870,-90.6093,92.8,1111122 
LUMCON,ioos:station:LUMCON:102:1,2017-03-01T08:15:00Z,29.1870,-90.6093,92.8,1111122 
LUMCON,ioos:station:LUMCON:102:1,2017-03-01T08:30:00Z,29.1870,-90.6093,92.6,1111122 
LUMCON,ioos:station:LUMCON:102:1,2017-03-01T08:45:00Z,29.1870,-90.6093,92.6,1111122 
LUMCON,ioos:station:LUMCON:102:1,2017-03-01T09:00:00Z,29.1870,-90.6093,92.4,1111122 
LUMCON,ioos:station:LUMCON:102:1,2017-03-01T09:15:00Z,29.1870,-90.6093,92.5,1111122 
LUMCON,ioos:station:LUMCON:102:1,2017-03-01T09:30:00Z,29.1870,-90.6093,92.3,1111122 
LUMCON,ioos:station:LUMCON:102:1,2017-03-01T09:45:00Z,29.1870,-90.6093,92.0,1111122 
LUMCON,ioos:station:LUMCON:102:1,2017-03-01T10:00:00Z,29.1870,-90.6093,91.7,1111122 
LUMCON,ioos:station:LUMCON:102:1,2017-03-01T10:15:00Z,29.1870,-90.6093,91.7,1111122 
LUMCON,ioos:station:LUMCON:102:1,2017-03-01T10:30:00Z,29.1870,-90.6093,91.4,1111122 
LUMCON,ioos:station:LUMCON:102:1,2017-03-01T10:45:00Z,29.1870,-90.6093,91.4,1111122 
LUMCON,ioos:station:LUMCON:102:1,2017-03-01T11:00:00Z,29.1870,-90.6093,91.2,1111122 
LUMCON,ioos:station:LUMCON:102:1,2017-03-01T11:15:00Z,29.1870,-90.6093,91.2,1111122 
LUMCON,ioos:station:LUMCON:102:1,2017-03-01T11:30:00Z,29.1870,-90.6093,91.2,1111122 
LUMCON,ioos:station:LUMCON:102:1,2017-03-01T11:45:00Z,29.1870,-90.6093,91.3,1111122 
LUMCON,ioos:station:LUMCON:102:1,2017-03-01T12:00:00Z,29.1870,-90.6093,91.3,1111122 
LUMCON,ioos:station:LUMCON:102:1,2017-03-01T12:15:00Z,29.1870,-90.6093,91.1,1111122 
LUMCON,ioos:station:LUMCON:102:1,2017-03-01T12:30:00Z,29.1870,-90.6093,91.1,1111122 
LUMCON,ioos:station:LUMCON:102:1,2017-03-01T12:45:00Z,29.1870,-90.6093,91.1,1111122 
LUMCON,ioos:station:LUMCON:102:1,2017-03-01T13:00:00Z,29.1870,-90.6093,90.9,1111122 
LUMCON,ioos:station:LUMCON:102:1,2017-03-01T13:15:00Z,29.1870,-90.6093,90.1,1111122 
LUMCON,ioos:station:LUMCON:102:1,2017-03-01T13:30:00Z,29.1870,-90.6093,89.4,1111122 
LUMCON,ioos:station:LUMCON:102:1,2017-03-01T13:45:00Z,29.1870,-90.6093,89.6,1111122 
LUMCON,ioos:station:LUMCON:102:1,2017-03-01T14:00:00Z,29.1870,-90.6093,89.8,1111122 
LUMCON,ioos:station:LUMCON:102:1,2017-03-01T14:15:00Z,29.1870,-90.6093,89.5,1111122 
LUMCON,ioos:station:LUMCON:102:1,2017-03-01T14:30:00Z,29.1870,-90.6093,89.3,1111122 
LUMCON,ioos:station:LUMCON:102:1,2017-03-01T14:45:00Z,29.1870,-90.6093,89.6,1111122 
LUMCON,ioos:station:LUMCON:102:1,2017-03-01T15:00:00Z,29.1870,-90.6093,89.4,1111122 
LUMCON,ioos:station:LUMCON:102:1,2017-03-01T15:15:00Z,29.1870,-90.6093,89.6,1111122 
LUMCON,ioos:station:LUMCON:102:1,2017-03-01T15:30:00Z,29.1870,-90.6093,89.5,1111122 
LUMCON,ioos:station:LUMCON:102:1,2017-03-01T15:45:00Z,29.1870,-90.6093,89.4,1111122 
LUMCON,ioos:station:LUMCON:102:1,2017-03-01T16:00:00Z,29.1870,-90.6093,89.6,1111122 
LUMCON,ioos:station:LUMCON:102:1,2017-03-01T16:15:00Z,29.1870,-90.6093,89.6,1111122 
LUMCON,ioos:station:LUMCON:102:1,2017-03-01T16:30:00Z,29.1870,-90.6093,90.3,1111122 
LUMCON,ioos:station:LUMCON:102:1,2017-03-01T16:45:00Z,29.1870,-90.6093,89.9,1111122 
LUMCON,ioos:station:LUMCON:102:1,2017-03-01T17:00:00Z,29.1870,-90.6093,87.8,1111122 
LUMCON,ioos:station:LUMCON:102:1,2017-03-01T17:15:00Z,29.1870,-90.6093,87.1,1111122 
LUMCON,ioos:station:LUMCON:102:1,2017-03-01T17:30:00Z,29.1870,-90.6093,86.9,1111122 
LUMCON,ioos:station:LUMCON:102:1,2017-03-01T17:45:00Z,29.1870,-90.6093,87.2,1111122 
LUMCON,ioos:station:LUMCON:102:1,2017-03-01T18:00:00Z,29.1870,-90.6093,86.9,1111122 
LUMCON,ioos:station:LUMCON:102:1,2017-03-01T18:15:00Z,29.1870,-90.6093,87.1,1111122 
LUMCON,ioos:station:LUMCON:102:1,2017-03-01T18:30:00Z,29.1870,-90.6093,87.3,1111122 
LUMCON,ioos:station:LUMCON:102:1,2017-03-01T18:45:00Z,29.1870,-90.6093,87.0,1111122 
LUMCON,ioos:station:LUMCON:102:1,2017-03-01T19:00:00Z,29.1870,-90.6093,87.1,1111122 
LUMCON,ioos:station:LUMCON:102:1,2017-03-01T19:15:00Z,29.1870,-90.6093,86.7,1111122 
LUMCON,ioos:station:LUMCON:102:1,2017-03-01T19:30:00Z,29.1870,-90.6093,87.3,1111122 
LUMCON,ioos:station:LUMCON:102:1,2017-03-01T19:45:00Z,29.1870,-90.6093,87.7,1111122 
LUMCON,ioos:station:LUMCON:102:1,2017-03-01T20:00:00Z,29.1870,-90.6093,87.6,1111122 
LUMCON,ioos:station:LUMCON:102:1,2017-03-01T20:15:00Z,29.1870,-90.6093,88.9,1111122 
LUMCON,ioos:station:LUMCON:102:1,2017-03-01T20:30:00Z,29.1870,-90.6093,89.5,1111122 
LUMCON,ioos:station:LUMCON:102:1,2017-03-01T20:45:00Z,29.1870,-90.6093,89.4,1111122 
LUMCON,ioos:station:LUMCON:102:1,2017-03-01T21:00:00Z,29.1870,-90.6093,90.1,1111122 
LUMCON,ioos:station:LUMCON:102:1,2017-03-01T21:15:00Z,29.1870,-90.6093,90.1,1111122 
LUMCON,ioos:station:LUMCON:102:1,2017-03-01T21:30:00Z,29.1870,-90.6093,90.8,1111122 
LUMCON,ioos:station:LUMCON:102:1,2017-03-01T21:45:00Z,29.1870,-90.6093,91.0,1111122 
LUMCON,ioos:station:LUMCON:102:1,2017-03-01T22:00:00Z,29.1870,-90.6093,91.3,1111122 
LUMCON,ioos:station:LUMCON:102:1,2017-03-01T22:15:00Z,29.1870,-90.6093,91.4,1111122 
LUMCON,ioos:station:LUMCON:102:1,2017-03-01T22:30:00Z,29.1870,-90.6093,91.7,1111122 
LUMCON,ioos:station:LUMCON:102:1,2017-03-01T22:45:00Z,29.1870,-90.6093,92.0,1111122 
LUMCON,ioos:station:LUMCON:102:1,2017-03-01T23:00:00Z,29.1870,-90.6093,92.1,1111122 
LUMCON,ioos:station:LUMCON:102:1,2017-03-01T23:15:00Z,29.1870,-90.6093,92.1,1111122 
LUMCON,ioos:station:LUMCON:102:1,2017-03-01T23:30:00Z,29.1870,-90.6093,92.0,1111122 
LUMCON,ioos:station:LUMCON:102:1,2017-03-01T23:45:00Z,29.1870,-90.6093,91.9,1111122 
LUMCON,ioos:station:LUMCON:102:1,2017-03-02T00:00:00Z,29.1870,-90.6093,91.9,1111122 
LUMCON,ioos:station:LUMCON:102:1,2017-03-02T00:15:00Z,29.1870,-90.6093,91.9,1111122 
LUMCON,ioos:station:LUMCON:102:1,2017-03-02T00:30:00Z,29.1870,-90.6093,91.7,1111122 
LUMCON,ioos:station:LUMCON:102:1,2017-03-02T00:45:00Z,29.1870,-90.6093,91.7,1111122 
LUMCON,ioos:station:LUMCON:102:1,2017-03-02T01:00:00Z,29.1870,-90.6093,91.8,1111122 
LUMCON,ioos:station:LUMCON:102:1,2017-03-02T01:15:00Z,29.1870,-90.6093,92.0,1111122 
LUMCON,ioos:station:LUMCON:102:1,2017-03-02T01:30:00Z,29.1870,-90.6093,91.6,1111122 
LUMCON,ioos:station:LUMCON:102:1,2017-03-02T01:45:00Z,29.1870,-90.6093,90.9,1111122 
LUMCON,ioos:station:LUMCON:102:1,2017-03-02T02:00:00Z,29.1870,-90.6093,90.4,1111122 
LUMCON,ioos:station:LUMCON:102:1,2017-03-02T02:15:00Z,29.1870,-90.6093,90.2,1111122 
LUMCON,ioos:station:LUMCON:102:1,2017-03-02T02:30:00Z,29.1870,-90.6093,89.7,1111122 
LUMCON,ioos:station:LUMCON:102:1,2017-03-02T02:45:00Z,29.1870,-90.6093,89.6,1111122 
LUMCON,ioos:station:LUMCON:102:1,2017-03-02T03:00:00Z,29.1870,-90.6093,87.0,1111122 
LUMCON,ioos:station:LUMCON:102:1,2017-03-02T03:15:00Z,29.1870,-90.6093,82.5,1111122 
LUMCON,ioos:station:LUMCON:102:1,2017-03-02T03:30:00Z,29.1870,-90.6093,82.7,1111122 
LUMCON,ioos:station:LUMCON:102:1,2017-03-02T03:45:00Z,29.1870,-90.6093,77.6,1111122 
LUMCON,ioos:station:LUMCON:102:1,2017-03-02T04:00:00Z,29.1870,-90.6093,76.2,1111122 
LUMCON,ioos:station:LUMCON:102:1,2017-03-02T04:15:00Z,29.1870,-90.6093,76.1,1111122 
LUMCON,ioos:station:LUMCON:102:1,2017-03-02T04:30:00Z,29.1870,-90.6093,71.0,1111122 
LUMCON,ioos:station:LUMCON:102:1,2017-03-02T04:45:00Z,29.1870,-90.6093,69.7,1111122 
LUMCON,ioos:station:LUMCON:102:1,2017-03-02T05:00:00Z,29.1870,-90.6093,66.8,1111122 
LUMCON,ioos:station:LUMCON:102:1,2017-03-02T05:15:00Z,29.1870,-90.6093,59.2,1111122 
LUMCON,ioos:station:LUMCON:102:1,2017-03-02T05:30:00Z,29.1870,-90.6093,51.6,1111122 
LUMCON,ioos:station:LUMCON:102:1,2017-03-02T05:45:00Z,29.1870,-90.6093,50.2,1111122 
LUMCON,ioos:station:LUMCON:102:1,2017-03-02T06:00:00Z,29.1870,-90.6093,48.5,1111122 
LUMCON,ioos:station:LUMCON:102:1,2017-03-02T06:15:00Z,29.1870,-90.6093,47.4,1111122 
LUMCON,ioos:station:LUMCON:102:1,2017-03-02T06:30:00Z,29.1870,-90.6093,44.7,1111122 
LUMCON,ioos:station:LUMCON:102:1,2017-03-02T06:45:00Z,29.1870,-90.6093,44.2,1111122 
LUMCON,ioos:station:LUMCON:102:1,2017-03-02T07:00:00Z,29.1870,-90.6093,41.8,1111122 
LUMCON,ioos:station:LUMCON:102:1,2017-03-02T07:15:00Z,29.1870,-90.6093,36.2,1111122 
LUMCON,ioos:station:LUMCON:102:1,2017-03-02T07:30:00Z,29.1870,-90.6093,41.3,1111122 
LUMCON,ioos:station:LUMCON:102:1,2017-03-02T07:45:00Z,29.1870,-90.6093,41.2,1111122 
LUMCON,ioos:station:LUMCON:102:1,2017-03-02T08:00:00Z,29.1870,-90.6093,44.3,1111122 
LUMCON,ioos:station:LUMCON:102:1,2017-03-02T08:15:00Z,29.1870,-90.6093,42.9,1111122 
LUMCON,ioos:station:LUMCON:102:1,2017-03-02T08:30:00Z,29.1870,-90.6093,45.6,1111122 
LUMCON,ioos:station:LUMCON:102:1,2017-03-02T08:45:00Z,29.1870,-90.6093,42.8,1111122 
LUMCON,ioos:station:LUMCON:102:1,2017-03-02T09:00:00Z,29.1870,-90.6093,47.4,1111122 
LUMCON,ioos:station:LUMCON:102:1,2017-03-02T09:15:00Z,29.1870,-90.6093,51.3,1111122 
LUMCON,ioos:station:LUMCON:102:1,2017-03-02T09:30:00Z,29.1870,-90.6093,45.3,1111122 
LUMCON,ioos:station:LUMCON:102:1,2017-03-02T09:45:00Z,29.1870,-90.6093,52.5,1111122 
LUMCON,ioos:station:LUMCON:102:1,2017-03-02T10:00:00Z,29.1870,-90.6093,46.2,1111122 
LUMCON,ioos:station:LUMCON:102:1,2017-03-02T10:15:00Z,29.1870,-90.6093,51.2,1111122 
LUMCON,ioos:station:LUMCON:102:1,2017-03-02T10:30:00Z,29.1870,-90.6093,53.0,1111122 
LUMCON,ioos:station:LUMCON:102:1,2017-03-02T10:45:00Z,29.1870,-90.6093,43.4,1111122 
LUMCON,ioos:station:LUMCON:102:1,2017-03-02T11:00:00Z,29.1870,-90.6093,48.5,1111122 
LUMCON,ioos:station:LUMCON:102:1,2017-03-02T11:15:00Z,29.1870,-90.6093,46.0,1111122 
LUMCON,ioos:station:LUMCON:102:1,2017-03-02T11:30:00Z,29.1870,-90.6093,45.0,1111122 
LUMCON,ioos:station:LUMCON:102:1,2017-03-02T11:45:00Z,29.1870,-90.6093,49.6,1111122 
LUMCON,ioos:station:LUMCON:102:1,2017-03-02T12:00:00Z,29.1870,-90.6093,42.5,1111122 
LUMCON,ioos:station:LUMCON:102:1,2017-03-02T12:15:00Z,29.1870,-90.6093,43.9,1111122 
LUMCON,ioos:station:LUMCON:102:1,2017-03-02T12:30:00Z,29.1870,-90.6093,39.5,1111122 
LUMCON,ioos:station:LUMCON:102:1,2017-03-02T12:45:00Z,29.1870,-90.6093,46.2,1111122 
LUMCON,ioos:station:LUMCON:102:1,2017-03-02T13:00:00Z,29.1870,-90.6093,42.8,1111122 
LUMCON,ioos:station:LUMCON:102:1,2017-03-02T13:15:00Z,29.1870,-90.6093,37.4,1111122 
LUMCON,ioos:station:LUMCON:102:1,2017-03-02T13:30:00Z,29.1870,-90.6093,37.5,1111122 
LUMCON,ioos:station:LUMCON:102:1,2017-03-02T13:45:00Z,29.1870,-90.6093,46.5,1111122 
LUMCON,ioos:station:LUMCON:102:1,2017-03-02T14:00:00Z,29.1870,-90.6093,40.0,1111122 
LUMCON,ioos:station:LUMCON:102:1,2017-03-02T14:15:00Z,29.1870,-90.6093,34.9,1111122 
LUMCON,ioos:station:LUMCON:102:1,2017-03-02T14:30:00Z,29.1870,-90.6093,34.2,1111122 
LUMCON,ioos:station:LUMCON:102:1,2017-03-02T14:45:00Z,29.1870,-90.6093,45.6,1111122 
LUMCON,ioos:station:LUMCON:102:1,2017-03-02T15:00:00Z,29.1870,-90.6093,37.9,1111122 
LUMCON,ioos:station:LUMCON:102:1,2017-03-02T15:15:00Z,29.1870,-90.6093,40.1,1111122 
LUMCON,ioos:station:LUMCON:102:1,2017-03-02T15:30:00Z,29.1870,-90.6093,36.7,1111122 
LUMCON,ioos:station:LUMCON:102:1,2017-03-02T15:45:00Z,29.1870,-90.6093,35.0,1111122 
LUMCON,ioos:station:LUMCON:102:1,2017-03-02T16:00:00Z,29.1870,-90.6093,44.4,1111122 
LUMCON,ioos:station:LUMCON:102:1,2017-03-02T16:15:00Z,29.1870,-90.6093,33.3,1111122 
LUMCON,ioos:station:LUMCON:102:1,2017-03-02T16:30:00Z,29.1870,-90.6093,37.3,1111122 
LUMCON,ioos:station:LUMCON:102:1,2017-03-02T16:45:00Z,29.1870,-90.6093,39.8,1111122 
LUMCON,ioos:station:LUMCON:102:1,2017-03-02T17:00:00Z,29.1870,-90.6093,36.1,1111122 
LUMCON,ioos:station:LUMCON:102:1,2017-03-02T17:15:00Z,29.1870,-90.6093,33.7,1111122 
LUMCON,ioos:station:LUMCON:102:1,2017-03-02T17:30:00Z,29.1870,-90.6093,33.8,1111122 
LUMCON,ioos:station:LUMCON:102:1,2017-03-02T17:45:00Z,29.1870,-90.6093,34.6,1111122 
LUMCON,ioos:station:LUMCON:102:1,2017-03-02T18:00:00Z,29.1870,-90.6093,36.6,1111122 
LUMCON,ioos:station:LUMCON:102:1,2017-03-02T18:15:00Z,29.1870,-90.6093,37.6,1111122 
LUMCON,ioos:station:LUMCON:102:1,2017-03-02T18:30:00Z,29.1870,-90.6093,36.9,1111122 
LUMCON,ioos:station:LUMCON:102:1,2017-03-02T18:45:00Z,29.1870,-90.6093,40.3,1111122 
LUMCON,ioos:station:LUMCON:102:1,2017-03-02T19:00:00Z,29.1870,-90.6093,37.1,1111122 
LUMCON,ioos:station:LUMCON:102:1,2017-03-02T19:15:00Z,29.1870,-90.6093,33.8,1111122 
LUMCON,ioos:station:LUMCON:102:1,2017-03-02T19:30:00Z,29.1870,-90.6093,33.3,1111122 
LUMCON,ioos:station:LUMCON:102:1,2017-03-02T19:45:00Z,29.1870,-90.6093,36.2,1111122 
LUMCON,ioos:station:LUMCON:102:1,2017-03-02T20:00:00Z,29.1870,-90.6093,35.3,1111122 
LUMCON,ioos:station:LUMCON:102:1,2017-03-02T20:15:00Z,29.1870,-90.6093,33.8,1111122 
LUMCON,ioos:station:LUMCON:102:1,2017-03-02T20:30:00Z,29.1870,-90.6093,33.4,1111122 
LUMCON,ioos:station:LUMCON:102:1,2017-03-02T20:45:00Z,29.1870,-90.6093,32.5,1111122 
LUMCON,ioos:station:LUMCON:102:1,2017-03-02T21:00:00Z,29.1870,-90.6093,29.4,1111122 
LUMCON,ioos:station:LUMCON:102:1,2017-03-02T21:15:00Z,29.1870,-90.6093,32.5,1111122 
LUMCON,ioos:station:LUMCON:102:1,2017-03-02T21:30:00Z,29.1870,-90.6093,34.1,1111122 
LUMCON,ioos:station:LUMCON:102:1,2017-03-02T21:45:00Z,29.1870,-90.6093,30.2,1111122 
LUMCON,ioos:station:LUMCON:102:1,2017-03-02T22:00:00Z,29.1870,-90.6093,28.2,1111122 
LUMCON,ioos:station:LUMCON:102:1,2017-03-02T22:15:00Z,29.1870,-90.6093,33.4,1111122 
LUMCON,ioos:station:LUMCON:102:1,2017-03-02T22:30:00Z,29.1870,-90.6093,28.4,1111122 
LUMCON,ioos:station:LUMCON:102:1,2017-03-02T22:45:00Z,29.1870,-90.6093,33.4,1111122 
LUMCON,ioos:station:LUMCON:102:1,2017-03-02T23:00:00Z,29.1870,-90.6093,31.0,1111122 
LUMCON,ioos:station:LUMCON:102:1,2017-03-02T23:15:00Z,29.1870,-90.6093,35.3,1111122 
LUMCON,ioos:station:LUMCON:102:1,2017-03-02T23:30:00Z,29.1870,-90.6093,33.2,1111122 
LUMCON,ioos:station:LUMCON:102:1,2017-03-02T23:45:00Z,29.1870,-90.6093,33.5,1111122 
LUMCON,ioos:station:LUMCON:102:1,2017-03-03T00:00:00Z,29.1870,-90.6093,29.9,1111122 
LUMCON,ioos:station:LUMCON:102:1,2017-03-03T00:15:00Z,29.1870,-90.6093,27.3,1111122 
LUMCON,ioos:station:LUMCON:102:1,2017-03-03T00:30:00Z,29.1870,-90.6093,31.1,1111122 
LUMCON,ioos:station:LUMCON:102:1,2017-03-03T00:45:00Z,29.1870,-90.6093,33.2,1111122 
LUMCON,ioos:station:LUMCON:102:1,2017-03-03T01:00:00Z,29.1870,-90.6093,37.2,1111122 
LUMCON,ioos:station:LUMCON:102:1,2017-03-03T01:15:00Z,29.1870,-90.6093,42.3,1111122 
LUMCON,ioos:station:LUMCON:102:1,2017-03-03T01:30:00Z,29.1870,-90.6093,44.9,1111122 
LUMCON,ioos:station:LUMCON:102:1,2017-03-03T01:45:00Z,29.1870,-90.6093,44.2,1111122 
LUMCON,ioos:station:LUMCON:102:1,2017-03-03T02:00:00Z,29.1870,-90.6093,44.4,1111122 
LUMCON,ioos:station:LUMCON:102:1,2017-03-03T02:15:00Z,29.1870,-90.6093,36.3,1111122 
LUMCON,ioos:station:LUMCON:102:1,2017-03-03T02:30:00Z,29.1870,-90.6093,38.0,1111122 
LUMCON,ioos:station:LUMCON:102:1,2017-03-03T02:45:00Z,29.1870,-90.6093,38.0,1111122 
LUMCON,ioos:station:LUMCON:102:1,2017-03-03T03:00:00Z,29.1870,-90.6093,41.9,1111122 
LUMCON,ioos:station:LUMCON:102:1,2017-03-03T03:15:00Z,29.1870,-90.6093,37.2,1111122 
LUMCON,ioos:station:LUMCON:102:1,2017-03-03T03:30:00Z,29.1870,-90.6093,43.9,1111122 
LUMCON,ioos:station:LUMCON:102:1,2017-03-03T03:45:00Z,29.1870,-90.6093,48.0,1111122 
LUMCON,ioos:station:LUMCON:102:1,2017-03-03T04:00:00Z,29.1870,-90.6093,45.1,1111122 
LUMCON,ioos:station:LUMCON:102:1,2017-03-03T04:15:00Z,29.1870,-90.6093,35.1,1111122 
LUMCON,ioos:station:LUMCON:102:1,2017-03-03T04:30:00Z,29.1870,-90.6093,39.4,1111122 
LUMCON,ioos:station:LUMCON:102:1,2017-03-03T04:45:00Z,29.1870,-90.6093,45.1,1111122 
LUMCON,ioos:station:LUMCON:102:1,2017-03-03T05:00:00Z,29.1870,-90.6093,43.6,1111122 
LUMCON,ioos:station:LUMCON:102:1,2017-03-03T05:15:00Z,29.1870,-90.6093,38.6,1111122 
LUMCON,ioos:station:LUMCON:102:1,2017-03-03T05:30:00Z,29.1870,-90.6093,41.3,1111122 
LUMCON,ioos:station:LUMCON:102:1,2017-03-03T05:45:00Z,29.1870,-90.6093,42.8,1111122 
LUMCON,ioos:station:LUMCON:102:1,2017-03-03T06:00:00Z,29.1870,-90.6093,45.8,1111122 
LUMCON,ioos:station:LUMCON:102:1,2017-03-03T06:15:00Z,29.1870,-90.6093,49.6,1111122 
LUMCON,ioos:station:LUMCON:102:1,2017-03-03T06:30:00Z,29.1870,-90.6093,45.2,1111122 
LUMCON,ioos:station:LUMCON:102:1,2017-03-03T06:45:00Z,29.1870,-90.6093,54.6,1111122 
LUMCON,ioos:station:LUMCON:102:1,2017-03-03T07:00:00Z,29.1870,-90.6093,50.7,1111122 
LUMCON,ioos:station:LUMCON:102:1,2017-03-03T07:15:00Z,29.1870,-90.6093,55.6,1111122 
LUMCON,ioos:station:LUMCON:102:1,2017-03-03T07:30:00Z,29.1870,-90.6093,50.2,1111122 
LUMCON,ioos:station:LUMCON:102:1,2017-03-03T07:45:00Z,29.1870,-90.6093,47.8,1111122 
LUMCON,ioos:station:LUMCON:102:1,2017-03-03T08:00:00Z,29.1870,-90.6093,52.0,1111122 
LUMCON,ioos:station:LUMCON:102:1,2017-03-03T08:15:00Z,29.1870,-90.6093,52.6,1111122 
LUMCON,ioos:station:LUMCON:102:1,2017-03-03T08:30:00Z,29.1870,-90.6093,40.2,1111122 
LUMCON,ioos:station:LUMCON:102:1,2017-03-03T08:45:00Z,29.1870,-90.6093,41.3,1111122 
LUMCON,ioos:station:LUMCON:102:1,2017-03-03T09:00:00Z,29.1870,-90.6093,47.9,1111122 
LUMCON,ioos:station:LUMCON:102:1,2017-03-03T09:15:00Z,29.1870,-90.6093,46.5,1111122 
LUMCON,ioos:station:LUMCON:102:1,2017-03-03T09:30:00Z,29.1870,-90.6093,46.7,1111122 
LUMCON,ioos:station:LUMCON:102:1,2017-03-03T09:45:00Z,29.1870,-90.6093,46.4,1111122 
LUMCON,ioos:station:LUMCON:102:1,2017-03-03T10:00:00Z,29.1870,-90.6093,47.2,1111122 
LUMCON,ioos:station:LUMCON:102:1,2017-03-03T10:15:00Z,29.1870,-90.6093,51.7,1111122 
LUMCON,ioos:station:LUMCON:102:1,2017-03-03T10:30:00Z,29.1870,-90.6093,53.8,1111122 
LUMCON,ioos:station:LUMCON:102:1,2017-03-03T10:45:00Z,29.1870,-90.6093,56.6,1111122 
LUMCON,ioos:station:LUMCON:102:1,2017-03-03T11:00:00Z,29.1870,-90.6093,59.4,1111122 
LUMCON,ioos:station:LUMCON:102:1,2017-03-03T11:15:00Z,29.1870,-90.6093,57.4,1111122 
LUMCON,ioos:station:LUMCON:102:1,2017-03-03T11:30:00Z,29.1870,-90.6093,50.6,1111122 
LUMCON,ioos:station:LUMCON:102:1,2017-03-03T11:45:00Z,29.1870,-90.6093,58.3,1111122 
LUMCON,ioos:station:LUMCON:102:1,2017-03-03T12:00:00Z,29.1870,-90.6093,59.3,1111122 
LUMCON,ioos:station:LUMCON:102:1,2017-03-03T12:15:00Z,29.1870,-90.6093,56.8,1111122 
LUMCON,ioos:station:LUMCON:102:1,2017-03-03T12:30:00Z,29.1870,-90.6093,55.8,1111122 
LUMCON,ioos:station:LUMCON:102:1,2017-03-03T12:45:00Z,29.1870,-90.6093,58.4,1111122 
LUMCON,ioos:station:LUMCON:102:1,2017-03-03T13:00:00Z,29.1870,-90.6093,59.3,1111122 
LUMCON,ioos:station:LUMCON:102:1,2017-03-03T13:15:00Z,29.1870,-90.6093,56.1,1111122 
LUMCON,ioos:station:LUMCON:102:1,2017-03-03T13:30:00Z,29.1870,-90.6093,55.2,1111122 
LUMCON,ioos:station:LUMCON:102:1,2017-03-03T13:45:00Z,29.1870,-90.6093,51.9,1111122 
LUMCON,ioos:station:LUMCON:102:1,2017-03-03T14:00:00Z,29.1870,-90.6093,48.9,1111122 
LUMCON,ioos:station:LUMCON:102:1,2017-03-03T14:15:00Z,29.1870,-90.6093,49.2,1111122 
LUMCON,ioos:station:LUMCON:102:1,2017-03-03T14:30:00Z,29.1870,-90.6093,46.5,1111122 
LUMCON,ioos:station:LUMCON:102:1,2017-03-03T14:45:00Z,29.1870,-90.6093,43.7,1111122 
LUMCON,ioos:station:LUMCON:102:1,2017-03-03T15:00:00Z,29.1870,-90.6093,47.1,1111122 
LUMCON,ioos:station:LUMCON:102:1,2017-03-03T15:15:00Z,29.1870,-90.6093,40.1,1111122 
LUMCON,ioos:station:LUMCON:102:1,2017-03-03T15:30:00Z,29.1870,-90.6093,44.2,1111122 
LUMCON,ioos:station:LUMCON:102:1,2017-03-03T15:45:00Z,29.1870,-90.6093,39.3,1111122 
LUMCON,ioos:station:LUMCON:102:1,2017-03-03T16:00:00Z,29.1870,-90.6093,47.2,1111122 
LUMCON,ioos:station:LUMCON:102:1,2017-03-03T16:15:00Z,29.1870,-90.6093,43.0,1111122 
LUMCON,ioos:station:LUMCON:102:1,2017-03-03T16:30:00Z,29.1870,-90.6093,28.6,1111122 
LUMCON,ioos:station:LUMCON:102:1,2017-03-03T16:45:00Z,29.1870,-90.6093,38.5,1111122 
LUMCON,ioos:station:LUMCON:102:1,2017-03-03T17:00:00Z,29.1870,-90.6093,28.7,1111122 
LUMCON,ioos:station:LUMCON:102:1,2017-03-03T17:15:00Z,29.1870,-90.6093,37.4,1111122 
LUMCON,ioos:station:LUMCON:102:1,2017-03-03T17:30:00Z,29.1870,-90.6093,36.7,1111122 
LUMCON,ioos:station:LUMCON:102:1,2017-03-03T17:45:00Z,29.1870,-90.6093,35.5,1111122 
LUMCON,ioos:station:LUMCON:102:1,2017-03-03T18:00:00Z,29.1870,-90.6093,35.6,1111122 
LUMCON,ioos:station:LUMCON:102:1,2017-03-03T18:15:00Z,29.1870,-90.6093,34.3,1111122 
LUMCON,ioos:station:LUMCON:102:1,2017-03-03T18:30:00Z,29.1870,-90.6093,32.1,1111122 
LUMCON,ioos:station:LUMCON:102:1,2017-03-03T18:45:00Z,29.1870,-90.6093,35.7,1111122 
LUMCON,ioos:station:LUMCON:102:1,2017-03-03T19:00:00Z,29.1870,-90.6093,34.7,1111122 
LUMCON,ioos:station:LUMCON:102:1,2017-03-03T19:15:00Z,29.1870,-90.6093,39.3,1111122 
LUMCON,ioos:station:LUMCON:102:1,2017-03-03T19:30:00Z,29.1870,-90.6093,39.6,1111122 
LUMCON,ioos:station:LUMCON:102:1,2017-03-03T19:45:00Z,29.1870,-90.6093,39.2,1111122 
LUMCON,ioos:station:LUMCON:102:1,2017-03-03T20:00:00Z,29.1870,-90.6093,45.6,1111122 
LUMCON,ioos:station:LUMCON:102:1,2017-03-03T20:15:00Z,29.1870,-90.6093,35.5,1111122 
LUMCON,ioos:station:LUMCON:102:1,2017-03-03T20:30:00Z,29.1870,-90.6093,37.7,1111122 
LUMCON,ioos:station:LUMCON:102:1,2017-03-03T20:45:00Z,29.1870,-90.6093,40.1,1111122 
LUMCON,ioos:station:LUMCON:102:1,2017-03-03T21:00:00Z,29.1870,-90.6093,41.1,1111122 
LUMCON,ioos:station:LUMCON:102:1,2017-03-03T21:15:00Z,29.1870,-90.6093,42.4,1111122 
LUMCON,ioos:station:LUMCON:102:1,2017-03-03T21:30:00Z,29.1870,-90.6093,45.7,1111122 
LUMCON,ioos:station:LUMCON:102:1,2017-03-03T21:45:00Z,29.1870,-90.6093,41.9,1111122 
LUMCON,ioos:station:LUMCON:102:1,2017-03-03T22:00:00Z,29.1870,-90.6093,40.5,1111122 